Leadville, CO

11:08 AM MDT on July 21, 2017 (GMT -0600)
Lake County

Weather History for KLXV - January, 2013

Change the Weather History Date:

Friday, January 11, 2013

  Actual Average Record
Temperature  
Mean Temperature 9 °F -  
Max Temperature 22 °F 30 °F 46 °F (1986)
Min Temperature -5 °F 4 °F -11 °F (1985)
Degree Days  
Heating Degree Days 56 48  
Month to date heating degree days 570 528  
Since 1 July heating degree days 5104 5429  
Cooling Degree Days 0 0  
Month to date cooling degree days 0 0  
Year to date cooling degree days 0 0  
Moisture  
Dew Point 2 °F    
Average Humidity 71    
Maximum Humidity 92    
Minimum Humidity 49    
Precipitation  
Precipitation 0.08 in 0.02 in 0.21 in (2017)
Month to date precipitation 0.08 0.23  
Year to date precipitation 0.08 0.23  
Sea Level Pressure  
Sea Level Pressure 29.43 in    
Wind  
Wind Speed 10 mph (WNW)    
Max Wind Speed 22 mph    
Max Gust Speed 29 mph    
Visibility 5 miles    
Events Fog , Snow    
T = Trace of Precipitation, MM = Missing Value Source: NWS Daily Summary

Daily Weather History Graph

Daily Weather History Graph

Search for Another Location

Airport or City:

Trip Planner

Search our weather history database for the weather conditions in past years. The results will help you decide how hot, cold, wet, or windy it might be!

Date:

Astronomy

Jan. 11, 2013 Rise Set
Actual Time 7:24 AM MST 5:02 PM MST
Civil Twilight 6:54 AM MST 5:32 PM MST
Nautical Twilight 6:21 AM MST 6:05 PM MST
Astronomical Twilight 5:49 AM MST 6:37 PM MST
Moon 6:59 AM MST (1/11) 5:23 PM MST (1/11)
Length of Visible Light 10h 37m
Length of Day
9h 38m
Waning Crescent, 0% of the Moon is Illuminated
Jan 11
Waning Crescent
Jan 11
New
Jan 18
First Quarter
Jan 26
Full
Feb 3
Last Quarter

Hourly Weather History & Observations

Time (MST) Temp. Windchill Dew Point Humidity Pressure Visibility Wind Dir Wind Speed Gust Speed Precip Events Conditions
12:53 AM 16.0 °F - 9.0 °F 74% 29.37 in 10.0 mi Calm Calm - N/A   Overcast
1:53 AM 21.0 °F 9.3 °F 12.0 °F 68% 29.26 in 7.0 mi SSE 11.5 mph 21.9 mph 0.00 in Snow Light Snow
2:53 AM 17.1 °F - 12.0 °F 81% 29.26 in 10.0 mi Calm Calm - 0.00 in   Overcast
3:18 AM 17.6 °F 7.3 °F 10.4 °F 73% 29.39 in 4.0 mi SSE 8.1 mph - 0.00 in Snow Light Snow
3:27 AM 19.4 °F 7.9 °F 12.2 °F 74% 29.38 in 2.0 mi SSE 10.4 mph - 0.00 in Snow Light Snow
3:36 AM 19.4 °F 11.5 °F 12.2 °F 74% 29.37 in 4.0 mi SSE 5.8 mph - 0.00 in Snow Light Snow
3:53 AM 16.0 °F 8.8 °F 12.0 °F 84% 29.20 in 10.0 mi WNW 4.6 mph - 0.00 in   Overcast
4:53 AM 17.1 °F 11.7 °F 12.0 °F 81% 29.18 in 10.0 mi SW 3.5 mph - N/A   Overcast
5:34 AM 19.4 °F 7.2 °F 12.2 °F 74% 29.28 in 2.0 mi SSE 11.5 mph - 0.00 in Snow Light Snow
5:44 AM 17.6 °F 6.4 °F 12.2 °F 79% 29.28 in 1.8 mi SSE 9.2 mph 18.4 mph 0.00 in Snow Light Snow
5:53 AM 18.0 °F 6.9 °F 12.9 °F 81% 29.15 in 2.5 mi SSE 9.2 mph - 0.00 in Snow Light Snow
6:05 AM 17.6 °F 8.2 °F 14.0 °F 86% 29.29 in 3.0 mi Variable 6.9 mph - 0.00 in Snow Light Snow
6:16 AM 15.8 °F 5.1 °F 14.0 °F 93% 29.29 in 1.8 mi West 8.1 mph - 0.01 in Snow Light Snow
6:22 AM 15.8 °F 5.1 °F 14.0 °F 93% 29.30 in 0.8 mi WSW 8.1 mph - 0.01 in Snow Light Snow
6:33 AM 15.8 °F 4.2 °F 14.0 °F 93% 29.31 in 0.5 mi West 9.2 mph - 0.02 in Fog , Snow Snow
6:46 AM 15.8 °F 4.2 °F 14.0 °F 93% 29.31 in 0.2 mi WSW 9.2 mph - 0.04 in Fog , Snow Heavy Snow
6:53 AM 16.0 °F 6.3 °F 14.0 °F 92% 29.24 in 0.2 mi WSW 6.9 mph - 0.05 in Fog , Snow Heavy Snow
7:01 AM 15.8 °F 5.1 °F 14.0 °F 93% 29.34 in 0.5 mi West 8.1 mph - 0.01 in Fog , Snow Snow
7:15 AM 15.8 °F 1.4 °F 12.2 °F 86% 29.31 in 1.2 mi North 13.8 mph 19.6 mph 0.02 in Snow Light Snow
7:18 AM 15.8 °F 3.4 °F 10.4 °F 79% 29.31 in 2.0 mi North 10.4 mph 19.6 mph 0.02 in Snow Light Snow
7:25 AM 15.8 °F 10.2 °F 10.4 °F 79% 29.32 in 8.0 mi NNW 3.5 mph - 0.02 in   Overcast
7:39 AM 14.0 °F 2.9 °F 8.6 °F 79% 29.33 in 10.0 mi NW 8.1 mph 19.6 mph 0.02 in   Overcast
7:53 AM 14.0 °F 5.1 °F 9.0 °F 80% 29.25 in 10.0 mi NNW 5.8 mph - 0.02 in   Overcast
8:50 AM 10.9 °F -4.7 °F 7.0 °F 84% 29.31 in 1.8 mi NW 13.8 mph 20.7 mph 0.00 in Snow Light Snow
9:20 AM 10.4 °F -5.4 °F 5.0 °F 79% 29.37 in 1.2 mi NW 13.8 mph 19.6 mph 0.00 in Snow Light Snow
9:37 AM 8.6 °F -3.7 °F 3.2 °F 79% 29.38 in 3.0 mi NW 8.1 mph - 0.00 in Snow Light Snow
9:53 AM 9.0 °F -7.3 °F -0.0 °F 67% 29.39 in 10.0 mi West 13.8 mph 23.0 mph 0.00 in   Overcast
10:53 AM 8.1 °F -10.2 °F -5.1 °F 55% 29.43 in 9.0 mi WNW 17.3 mph 25.3 mph 0.00 in   Mostly Cloudy
11:12 AM 8.6 °F -8.9 °F -0.4 °F 67% 29.40 in 1.8 mi NW 16.1 mph 25.3 mph 0.00 in Snow Light Snow
11:27 AM 6.8 °F -10.7 °F -2.2 °F 67% 29.39 in 3.0 mi WNW 15.0 mph 24.2 mph 0.00 in Snow Light Snow
11:53 AM 6.1 °F -10.9 °F -5.1 °F 60% 29.43 in 8.0 mi WNW 13.8 mph 25.3 mph 0.00 in   Overcast
12:24 PM 6.8 °F -9.3 °F -2.2 °F 67% 29.39 in 2.0 mi WNW 12.7 mph - 0.00 in Snow Light Snow
12:33 PM 6.8 °F -10.0 °F -2.2 °F 67% 29.39 in 3.0 mi NW 13.8 mph 21.9 mph 0.00 in Snow Light Snow
12:53 PM 5.0 °F -12.3 °F -5.1 °F 63% 29.42 in 4.0 mi WNW 13.8 mph 20.7 mph 0.00 in Snow Light Snow
1:53 PM 5.0 °F -13.0 °F -8.0 °F 55% 29.40 in 10.0 mi West 15.0 mph - 0.00 in   Overcast
2:53 PM 5.0 °F -13.0 °F -11.0 °F 48% 29.46 in 10.0 mi WNW 15.0 mph 21.9 mph N/A   Overcast
3:53 PM 3.9 °F -13.0 °F -8.0 °F 58% 29.50 in 10.0 mi WNW 12.7 mph - N/A   Overcast
4:06 PM 3.2 °F -12.2 °F -5.8 °F 66% 29.47 in 1.8 mi WNW 10.4 mph 16.1 mph 0.00 in Snow Light Snow
4:23 PM 1.4 °F -18.2 °F -2.2 °F 85% 29.48 in 0.5 mi NW 16.1 mph 26.5 mph 0.00 in Fog , Snow Light Snow
4:26 PM 1.4 °F -16.9 °F -2.2 °F 85% 29.49 in 0.2 mi NW 13.8 mph 26.5 mph 0.00 in Fog , Snow Snow
4:44 PM 1.4 °F -18.2 °F -2.2 °F 85% 29.49 in 0.8 mi NW 16.1 mph 23.0 mph 0.01 in Snow Light Snow
4:51 PM 1.4 °F -16.1 °F -4.0 °F 78% 29.50 in 1.5 mi NW 12.7 mph 24.2 mph 0.01 in Snow Light Snow
4:53 PM 1.9 °F -16.2 °F -4.0 °F 76% 29.55 in 1.8 mi NW 13.8 mph 24.2 mph 0.01 in Snow Light Snow
4:58 PM 1.4 °F -15.3 °F -5.8 °F 72% 29.50 in 3.0 mi NW 11.5 mph 20.7 mph 0.00 in Snow Light Snow
5:10 PM 1.4 °F -15.3 °F -5.8 °F 72% 29.51 in 9.0 mi NW 11.5 mph - 0.00 in   Overcast
5:53 PM 1.0 °F -20.9 °F -9.0 °F 63% 29.58 in 8.0 mi WNW 20.7 mph 27.6 mph 0.00 in   Mostly Cloudy
6:53 PM -0.0 °F -16.3 °F -9.9 °F 63% 29.64 in 10.0 mi WNW 10.4 mph - N/A   Overcast
7:53 PM -0.9 °F -16.4 °F -11.0 °F 62% 29.67 in 10.0 mi WNW 9.2 mph - N/A   Overcast
8:34 PM -0.4 °F -10.4 °F -7.6 °F 72% 29.59 in 3.0 mi WNW 4.6 mph - 0.00 in Snow Light Snow
8:42 PM -0.4 °F -10.4 °F -5.8 °F 78% 29.59 in 2.5 mi NW 4.6 mph - 0.00 in Snow Light Snow
8:53 PM -0.9 °F -11.0 °F -6.0 °F 79% 29.72 in 3.0 mi NNW 4.6 mph - 0.00 in Snow Light Snow
9:31 PM -2.2 °F -12.5 °F -7.6 °F 78% 29.59 in 2.5 mi NNW 4.6 mph - 0.00 in Snow Light Snow
9:38 PM -2.2 °F -14.2 °F -7.6 °F 78% 29.60 in 4.0 mi NNW 5.8 mph - 0.00 in   Haze
9:53 PM -2.0 °F -15.4 °F -7.1 °F 79% 29.74 in 7.0 mi NNW 6.9 mph - 0.00 in   Overcast
10:53 PM -4.0 °F -20.2 °F -11.0 °F 72% 29.78 in 10.0 mi NW 9.2 mph - N/A   Mostly Cloudy
11:31 PM -4.0 °F -21.2 °F -9.4 °F 78% 29.61 in 8.0 mi North 10.4 mph - N/A   Mostly Cloudy
11:40 PM -5.8 °F -21.2 °F -9.4 °F 84% 29.61 in 7.0 mi North 8.1 mph - N/A   Overcast
11:53 PM -5.1 °F -17.6 °F -9.9 °F 80% 29.81 in 9.0 mi NNW 5.8 mph - N/A   Overcast